Location: Brabourne
(51.1333°N, 1.0000°E)
Time: 06:19:03
(UTC+00:00)

NOSS 3-1 (A) - Pass Details

Date: 29 October 2021
Orbit: 721 x 1491 km, 63.4° (Epoch: 22 November)

Event Time Altitude Azimuth Distance (km) Brightness Sun altitude
Rises 21:28:51 0° 292° (WNW) 3,526 7.1 -44.3°
Reaches altitude 10° 21:31:34 10° 304° (NW) 2,693 6.4 -44.6°
Enters shadow 21:34:17 22° 326° (NW) 2,056 5.6 -44.9°
